Home   Weather   Maldonado   Past weeks

Flag for Uruguay Past Weather in Maldonado, Uruguay — Yesterday and Last 2 Weeks

Now
72 °F

Sunny.


Feels Like: 74 °F
Forecast: 68 / 87 °F
Wind: 2 mph from Northeast

Location: Capitan Corbeta

Current Time: Jan 20, 2017 at 9:07:38 am

Latest Report: Jan 20, 2017 at 8:00 am


Visibility: 10 mi

Pressure: 30.12 "Hg

Humidity: 73%

Dew Point: 63 °F

Location of MaldonadoLocation

Past Weather in Maldonado — Graph

°F

Maldonado Temperature Yesterday

Maximum temperature yesterday: 90 °F (at 3:00 pm)
Minimum temperature yesterday: 64 °F (at 12:00 am)
Average temperature yesterday: 76 °F

High & Low Weather Summary for the Past Weeks

 TemperatureHumidityPressure
High91 °F (Jan 7, 2:00 pm)100% (Jan 9, 6:00 am)30.12 "Hg (Jan 9, 6:00 am)
Low55 °F (Jan 14, 6:00 am)29% (Jan 12, 5:00 pm)29.53 "Hg (Jan 9, 6:00 pm)
Average73 °F71%29.84 "Hg
* Reported Jan 5 8:00 am — Jan 20 8:00 am, Maldonado, Weather by CustomWeather, © 2017

Note: Actual official high and low records may vary slightly from our data, if they occured in-between our weather recording intervals... More about our weather records

Advertising

Maldonado Weather History for the Previous 24 Hours

Scroll right to see more
 ConditionsComfort  
Time TempWeatherWind HumidityBarometerVisibility
8:00 am
Fri, Jan 20
72 °FSunny.2 mph73%30.12 "Hg10 mi
7:00 am68 °FSunny.2 mph83%30.09 "Hg10 mi
6:00 am68 °FSunny.8 mph83%30.07 "Hg10 mi
4:00 am70 °FClear.12 mph83%30.04 "Hg10 mi
3:00 am70 °FClear.10 mph83%30.07 "Hg10 mi
2:00 am70 °FClear.8 mph78%30.07 "Hg10 mi
1:00 am72 °FClear.9 mph73%30.07 "Hg10 mi
12:00 am73 °FPassing clouds.10 mph74%30.07 "HgN/A
11:00 pm
Thu, Jan 19
73 °FClear.9 mph74%30.07 "Hg10 mi
10:00 pm77 °FPassing clouds.9 mph69%30.04 "HgN/A
9:00 pm77 °FClear.7 mph69%29.98 "Hg10 mi
8:00 pm79 °FPassing clouds.6 mph61%29.98 "HgN/A
7:00 pm84 °FPartly sunny.6 mph43%29.98 "HgN/A
6:00 pm84 °FBroken clouds.6 mph43%29.98 "HgN/A
5:00 pm88 °FBroken clouds.9 mph31%29.98 "HgN/A
4:00 pm88 °FBroken clouds.10 mph31%30.01 "HgN/A
3:00 pm90 °FScattered clouds.10 mph31%30.01 "HgN/A
2:00 pm88 °FPassing clouds.12 mph33%30.01 "HgN/A
1:00 pm86 °FPassing clouds.14 mph33%30.04 "HgN/A
12:00 pm84 °FPassing clouds.13 mph40%30.04 "HgN/A
11:00 am82 °FPassing clouds.10 mph42%30.04 "HgN/A
10:00 am77 °FPassing clouds.10 mph54%30.04 "HgN/A
9:00 am72 °FPassing clouds.9 mph69%30.04 "HgN/A
Weather by CustomWeather, © 2017

See weather overviewHow to use our weather pages